Theta_e
319 320 322 324 326 321 320 320 321 326 331 328 323 332 335 336 336 338 338 339 338 338 337 338 339 340 339 337 337 336 334 333 333 332 335 332 333 331 331 330 330 330 329 330 329 329 330 328 328
318 321 323 326 327 327 326 321 324 327 326 323 325 332 332 337 338 338 339 338 338 336 337 340 338 338 339 339 337 336 335 334 333 331 329 330 329 330 329 328 327 327 331 332 332 329 328 326 328
317 320 325 326 326 325 325 321 327 326 323 322 329 334 337 341 338 338 339 338 338 336 337 340 338 338 339 339 338 336 332 332 333 330 329 328 328 328 327 326 326 326 327 331 331 329 326 325 327
321 324 324 327 325 325 322 322 324 325 323 322 322 330 339 336 337 336 338 337 338 337 337 339 337 338 338 338 337 334 330 331 332 331 329 329 328 327 325 326 326 327 326 328 328 327 327 325 327
321 323 324 326 325 324 324 321 322 324 325 324 323 325 335 330 320 331 338 337 338 339 337 337 336 338 338 338 336 332 331 330 329 329 328 327 326 325 325 325 325 327 325 326 328 326 326 327 327
323 323 321 322 323 324 323 321 320 323 323 324 324 324 332 320 310 311 335 339 338 338 338 336 335 334 334 334 333 333 333 332 330 329 327 326 326 325 325 325 324 326 325 326 326 324 327 326 327
321 321 318 321 320 321 322 315 321 322 322 323 318 325 334 323 308 307 332 337 338 338 338 336 335 334 334 335 334 333 333 333 331 328 326 325 325 326 325 325 324 326 325 325 326 325 328 326 330
321 321 321 321 321 319 319 314 319 320 321 313 316 325 329 325 307 307 316 331 337 338 338 338 338 337 337 338 335 333 333 333 332 329 326 325 325 325 325 325 324 325 325 325 323 324 327 326 328
317 319 316 317 320 317 315 314 312 311 312 312 314 319 320 307 307 310 310 311 316 329 337 338 339 338 338 339 338 335 334 333 332 330 328 326 326 327 326 324 324 324 325 325 324 324 325 326 327
319 315 314 315 315 316 314 311 311 310 311 311 311 312 308 306 307 308 309 310 310 310 315 330 337 337 338 337 338 337 336 335 334 333 331 327 327 327 326 325 323 323 324 326 324 323 324 326 329
317 314 313 313 313 310 310 309 309 310 311 311 311 310 307 305 306 305 306 305 305 305 306 308 309 317 332 335 335 336 335 335 334 334 333 330 328 327 327 326 324 323 323 323 325 325 325 327 328
313 312 312 311 308 308 309 307 307 307 309 306 306 305 305 306 306 305 304 304 304 304 305 305 305 304 306 316 325 333 335 334 335 334 334 332 330 328 327 326 325 323 323 324 326 326 325 326 328
310 308 307 307 306 305 305 306 306 306 306 306 304 304 305 305 304 303 303 303 303 303 303 304 304 304 304 305 312 317 322 330 332 333 333 333 331 328 326 326 325 324 323 324 326 326 325 327 326
306 306 307 305 305 305 304 305 302 306 302 303 303 304 304 304 304 303 303 303 303 302 302 303 303 303 303 303 304 310 316 318 323 328 331 332 331 329 326 325 325 324 323 323 326 324 326 326 326
306 306 305 304 303 304 302 305 303 305 302 302 302 303 303 303 302 302 302 302 302 303 303 303 303 303 302 303 303 305 309 312 315 319 323 326 329 329 328 324 324 324 324 324 324 325 325 326 326
304 304 308 302 302 302 301 309 304 301 301 302 303 303 303 303 302 302 301 301 302 302 303 303 302 302 302 303 303 303 304 310 313 316 319 322 324 325 324 325 324 323 323 323 323 324 325 323 325
304 310 304 304 302 302 302 306 304 301 301 302 303 303 303 302 302 302 302 302 302 302 302 302 302 302 302 302 302 302 303 308 311 314 316 318 321 324 325 322 323 324 323 323 323 323 325 323 322
310 305 302 303 301 302 302 303 304 304 303 302 303 302 302 302 302 302 302 302 302 302 302 301 301 301 301 302 304 305 305 305 310 313 315 316 318 319 321 323 324 323 323 322 323 323 324 324 322
301 302 303 303 301 301 303 303 304 304 303 303 302 301 301 302 302 301 302 301 302 303 304 304 302 303 304 306 308 309 309 310 311 312 312 313 313 315 317 320 321 322 323 321 322 323 323 323 321
302 303 309 303 300 301 303 302 304 302 301 301 301 301 302 302 303 302 302 302 302 302 303 304 305 305 304 304 304 304 303 303 304 304 305 307 309 311 314 317 319 320 320 322 321 322 323 321 313
302 304 303 303 303 301 300 308 308 302 300 301 302 301 301 302 303 303 301 301 301 300 300 303 303 302 301 301 301 301 301 303 303 303 303 301 302 304 308 311 313 316 318 319 320 322 322 319 313
303 300 301 302 304 313 300 322 310 304 303 302 303 303 303 302 301 301 301 300 299 298 298 299 299 300 300 300 299 299 299 300 300 301 301 301 302 302 303 305 309 312 314 316 317 319 322 319 314
301 301 302 302 303 301 304 307 312 302 306 305 304 303 303 303 302 301 300 299 298 297 297 297 297 298 298 298 298 298 298 299 299 299 300 300 300 300 301 302 304 309 311 314 315 315 315 315 315
300 301 299 299 302 311 301 305 312 309 306 302 301 302 303 301 300 299 299 298 298 297 297 297 297 297 297 297 297 298 298 298 299 299 300 300 300 300 300 300 301 303 306 309 311 315 316 316 316
301 301 324 325 318 321 300 304 310 307 302 301 301 301 301 300 300 300 300 300 298 296 296 296 296 297 297 297 297 297 297 297 297 297 298 299 299 300 300 300 301 302 304 307 308 311 314 316 314
301 300 311 315 314 311 296 308 309 302 300 301 301 300 300 300 300 299 300 298 296 295 295 296 297 297 297 296 296 296 296 296 297 297 297 298 298 299 299 300 301 302 302 304 308 310 311 315 315
301 301 297 300 290 301 308 303 303 302 300 300 300 300 301 300 299 300 299 296 295 295 296 297 297 296 296 296 296 296 295 295 295 295 295 295 296 297 298 299 299 300 301 302 305 309 311 312 315
300 299 304 304 311 314 312 306 309 307 303 300 300 301 300 298 299 299 297 295 295 295 297 297 297 296 295 294 293 293 293 293 294 294 294 294 294 296 297 298 298 298 299 301 303 308 311 312 314
300 301 299 300 301 309 310 315 306 309 306 303 301 299 299 299 299 298 296 295 295 297 299 297 296 294 293 292 292 292 291 292 292 292 293 293 294 294 296 296 297 297 297 299 302 305 310 312 313
299 300 300 307 307 299 299 307 302 302 302 300 301 300 300 299 298 296 295 294 297 299 298 296 294 293 292 291 291 291 291 291 291 291 291 292 292 293 294 295 296 296 297 298 301 304 308 311 312
Wind_Speed
10 9 5 3 4 3 3 3 1 3 4 1 4 4 3 5 3 3 4 3 4 9 19 23 22 21 20 20 18 15 14 12 12 12 12 11 11 12 11 11 9 11 11 13 13 14 14 13 15
8 6 2 1 4 6 4 3 6 2 4 7 2 4 4 3 4 3 2 4 3 10 16 18 22 21 20 20 19 16 14 14 13 13 13 12 10 11 10 9 10 10 13 14 15 14 15 16 18
5 4 3 3 3 7 2 5 4 2 4 1 2 1 2 2 3 4 7 6 3 11 16 17 21 21 20 20 18 15 13 14 14 15 14 13 13 12 11 12 13 14 15 14 15 16 15 17 19
2 3 2 5 9 4 3 5 1 2 2 4 4 3 4 3 4 9 11 1 2 8 13 16 21 21 21 19 17 15 14 14 15 17 15 15 14 13 12 13 15 16 16 15 17 16 18 20 21
1 2 4 5 9 4 5 2 3 5 3 2 5 2 2 4 5 8 6 2 1 5 9 12 20 20 20 20 19 17 16 16 15 15 17 17 14 15 16 16 17 16 17 17 17 19 19 21 22
4 2 4 7 9 5 4 2 4 7 5 4 4 3 2 4 8 10 6 2 1 4 7 10 17 18 19 19 19 19 19 18 17 16 18 18 17 17 18 18 19 19 19 19 18 20 22 23 23
3 3 4 5 5 4 3 0 6 6 7 6 3 4 3 5 5 6 4 0 1 4 7 10 12 17 19 19 19 20 21 21 21 19 19 19 18 19 18 18 20 19 20 21 21 23 22 23 24
2 3 3 5 4 3 2 2 1 5 5 3 2 4 4 4 6 5 2 3 2 1 5 8 11 13 16 17 21 22 23 23 22 21 21 22 22 22 19 20 20 21 21 22 22 24 24 26 23
1 4 5 3 5 1 1 2 2 1 7 3 4 5 2 4 6 3 1 1 1 1 3 6 9 11 14 16 17 22 25 26 27 26 25 25 21 21 23 23 22 22 22 24 25 26 27 27 24
5 4 3 0 2 2 2 4 4 5 7 8 8 8 2 5 6 5 4 4 3 3 4 5 8 10 12 15 18 19 21 24 26 25 24 29 23 22 24 25 26 27 26 24 24 26 27 29 22
3 4 0 2 3 3 4 5 4 7 11 14 10 6 3 4 6 6 6 6 8 9 8 6 5 7 11 17 20 24 25 24 25 26 26 29 26 24 25 25 27 27 28 28 26 26 27 28 25
4 3 3 0 1 2 4 4 7 15 13 2 6 3 6 8 8 7 7 11 13 14 14 13 13 14 12 11 13 18 24 27 26 27 29 29 29 28 27 28 28 29 29 32 28 28 28 28 27
5 2 3 3 6 7 8 13 14 17 18 12 9 10 13 11 11 10 12 16 18 19 19 17 13 14 15 15 14 16 17 21 26 28 30 32 32 31 32 31 30 31 33 30 30 29 31 32 29
2 5 8 5 4 5 7 9 3 2 4 3 8 10 9 9 11 13 17 20 15 14 15 15 15 16 18 20 20 18 18 18 18 23 29 33 34 33 35 32 33 31 32 33 32 31 30 34 33
1 6 6 1 3 3 9 10 10 10 4 8 10 10 11 11 12 16 16 13 12 11 11 13 14 14 16 18 20 18 17 18 20 19 20 25 27 30 38 36 34 38 34 34 31 30 32 33 36
2 2 4 2 5 3 4 10 2 3 4 9 11 11 13 15 14 12 10 11 10 12 13 15 16 18 17 18 19 19 19 16 17 18 19 21 23 25 26 30 42 44 44 41 38 34 34 32 31
1 4 3 3 3 3 2 14 4 1 7 18 18 19 15 13 11 6 5 8 9 10 13 15 14 17 17 17 17 18 18 16 16 16 17 18 21 22 25 29 30 29 36 41 43 42 36 35 31
3 4 3 6 2 3 10 25 28 16 15 19 20 16 13 10 7 3 3 5 8 9 11 13 13 15 15 15 14 14 15 16 14 15 15 16 17 18 21 25 25 32 32 31 37 38 38 35 35
1 2 8 5 1 6 7 19 27 22 16 18 15 10 8 6 2 3 2 4 6 8 10 11 12 12 11 11 11 11 14 12 11 13 14 16 16 18 19 19 22 25 32 36 37 39 32 26 32
2 5 6 7 2 5 9 24 25 10 3 4 4 4 5 3 3 2 2 5 7 10 14 17 16 13 12 12 11 11 14 16 17 19 20 21 19 19 19 20 20 22 27 32 35 38 27 34 34
5 6 3 5 9 5 13 11 6 3 3 3 4 3 3 5 4 3 2 4 9 16 20 18 17 15 16 16 16 19 20 21 21 24 27 31 29 28 24 22 22 21 22 28 31 36 48 30 36
4 1 2 6 8 4 6 5 10 2 7 7 7 8 8 8 7 5 1 2 9 19 19 19 19 21 24 24 25 25 26 28 29 30 30 29 27 27 27 27 26 26 24 24 27 32 29 42 37
2 2 3 3 1 4 2 3 7 2 2 2 8 11 10 9 6 4 5 8 11 18 17 20 22 23 25 25 25 26 28 28 30 30 31 33 32 31 31 30 28 27 27 26 27 28 32 29 29
3 2 2 1 2 3 1 2 6 4 3 2 2 7 10 8 6 6 9 13 16 20 21 22 23 25 26 27 28 30 33 32 31 30 30 29 29 30 32 32 32 31 30 29 30 30 28 29 35
2 2 3 3 2 2 1 4 12 6 6 4 4 5 8 6 6 7 9 11 21 22 24 24 25 28 28 30 31 32 34 33 34 33 31 31 28 28 30 31 30 32 33 30 30 31 31 32 33
4 2 2 5 4 5 1 7 4 2 2 6 9 10 12 12 6 7 10 19 21 23 25 25 27 29 27 29 31 31 32 30 31 33 31 31 30 31 31 30 31 31 31 31 31 32 33 33 37
5 4 3 3 2 3 4 7 14 5 10 12 13 11 9 7 7 10 16 20 22 23 26 27 27 26 26 29 29 29 30 31 31 33 32 32 32 32 31 28 30 29 29 30 31 33 34 33 36
3 6 1 1 4 6 5 6 11 5 7 5 3 5 6 7 9 13 14 19 21 23 26 25 26 27 27 29 28 29 29 31 32 31 32 33 32 31 29 29 29 28 29 30 32 33 35 34 35
4 4 3 2 3 4 6 6 7 8 4 5 3 5 8 8 13 14 13 19 21 23 25 27 27 27 27 27 29 29 29 30 31 30 32 34 32 31 30 30 29 30 30 35 35 35 35 37 36
2 2 7 5 5 3 3 12 4 6 4 3 6 8 11 11 14 13 13 19 22 24 26 27 28 29 28 28 30 30 31 31 31 31 33 34 33 31 30 29 29 31 32 32 33 34 34 37 38
Wind_Direction
333 332 325 246 245 251 236 198 284 192 188 86 309 264 343 22 352 3 12 146 338 176 178 187 188 189 184 182 183 185 176 174 173 175 174 177 181 180 175 176 174 166 178 174 164 157 150 157 160
339 331 272 209 245 234 204 158 193 173 340 318 232 225 239 95 41 68 94 330 349 167 177 185 195 196 193 191 191 192 184 178 177 175 177 182 190 187 180 187 188 179 179 164 156 158 155 160 162
335 339 261 244 230 242 222 181 150 333 337 311 203 7 2 59 59 4 343 301 198 174 179 187 197 199 198 198 198 196 195 187 180 179 185 187 193 194 198 191 190 187 183 175 164 166 166 170 174
304 180 148 246 228 230 251 172 178 297 163 27 341 184 112 42 347 338 335 214 196 184 186 196 192 198 201 202 206 208 205 195 187 184 187 191 194 196 201 193 192 189 188 187 179 180 180 174 172
17 230 221 235 247 249 223 239 280 271 299 325 330 187 139 60 9 0 1 25 186 193 198 202 200 201 206 208 214 215 210 205 198 193 193 194 203 203 203 196 198 188 191 191 183 183 183 182 182
174 282 227 234 230 229 235 215 266 251 266 264 252 269 147 105 26 7 8 353 258 208 206 208 212 212 218 222 220 217 213 210 206 205 196 195 209 203 209 202 203 195 195 192 189 187 188 192 188
219 209 252 248 249 256 195 360 232 250 251 237 333 261 110 168 9 356 13 47 194 198 200 207 211 218 222 228 229 225 223 216 211 207 203 202 207 210 210 211 205 209 197 198 195 193 194 195 189
218 243 223 224 222 254 130 273 272 246 253 323 235 239 211 151 343 343 33 48 55 210 221 217 219 224 228 229 231 232 228 225 221 218 214 209 208 209 216 216 211 214 206 201 203 200 199 196 197
216 233 249 237 196 132 148 288 171 288 268 247 222 244 28 1 345 345 53 66 60 47 237 235 234 233 236 238 238 237 235 232 228 223 219 214 213 215 211 214 216 217 220 211 203 205 208 201 200
224 242 237 170 204 238 221 260 289 269 234 241 237 222 197 329 331 313 306 291 308 311 292 264 246 242 247 247 246 241 237 235 229 226 225 216 217 218 214 215 215 218 215 218 213 212 208 205 200
172 259 60 226 254 267 270 265 249 258 259 247 253 234 218 284 277 281 290 297 305 295 285 269 266 265 254 255 251 250 249 245 235 231 225 221 221 222 217 216 213 215 215 219 217 216 214 207 199
246 247 244 303 165 261 260 292 264 243 251 304 248 224 266 265 262 262 284 302 301 289 274 267 262 265 260 257 258 259 255 257 252 239 230 221 219 219 217 213 213 213 215 217 211 211 213 212 206
245 298 262 272 271 265 272 261 266 265 262 254 243 259 267 255 254 258 274 281 281 276 274 268 268 264 260 255 254 254 253 256 257 257 240 227 220 219 217 217 214 210 211 214 215 215 210 206 203
354 292 283 295 297 287 290 276 299 207 59 205 233 239 246 229 242 271 276 281 276 272 272 271 266 264 264 261 257 253 254 253 249 252 252 240 231 223 220 218 214 213 213 214 216 213 210 205 197
284 294 278 269 338 302 307 266 229 259 237 257 254 239 235 240 271 266 278 271 278 279 277 270 269 263 261 262 261 258 257 256 258 256 252 248 247 233 224 218 217 212 213 215 219 214 209 204 199
247 244 292 82 339 31 342 279 303 153 207 242 241 243 257 271 275 273 263 264 271 276 280 279 269 264 261 261 258 256 256 253 256 255 253 252 250 245 248 227 215 217 212 215 212 217 205 206 194
222 267 256 277 47 318 273 286 264 171 252 274 273 270 272 284 282 254 243 256 269 276 284 282 278 267 262 261 256 255 255 250 247 247 248 251 251 250 245 240 243 231 216 213 211 208 212 204 198
206 267 253 265 52 266 264 267 284 274 269 275 278 280 274 265 260 270 272 275 266 276 279 283 286 273 263 261 260 259 258 258 255 253 248 246 245 244 248 252 246 240 237 224 213 213 206 208 201
8 273 276 274 334 297 254 275 280 294 283 271 274 259 238 231 204 265 279 339 313 307 311 299 286 274 256 258 256 256 255 254 254 255 252 245 243 246 244 241 249 245 234 229 218 216 210 209 193
295 299 279 284 291 311 309 292 282 301 255 264 303 199 187 191 216 204 354 358 359 327 313 295 283 274 262 258 259 269 271 269 265 265 263 255 247 243 240 237 240 243 245 229 217 213 211 198 183
243 248 290 287 320 261 308 275 274 200 268 236 212 220 211 223 218 207 300 22 9 343 323 304 282 275 273 268 277 283 279 273 268 265 263 261 257 252 245 241 238 236 238 242 238 224 210 194 195
282 53 301 310 337 296 10 287 290 288 278 229 208 209 218 224 228 234 287 298 356 338 314 303 292 283 279 277 275 273 271 269 266 267 262 259 256 255 249 243 237 234 233 231 241 239 228 198 193
343 1 311 305 250 320 106 223 275 311 240 224 207 213 220 225 229 256 278 276 297 319 303 301 295 287 284 281 278 274 270 267 269 264 259 255 254 251 248 242 239 234 232 231 228 235 241 234 214
117 274 258 135 171 242 98 267 272 229 163 172 195 215 225 211 222 265 279 281 282 306 297 296 295 290 287 284 280 276 273 272 268 263 260 257 254 249 245 242 238 233 232 230 234 232 228 228 224
200 280 294 271 236 293 106 266 253 252 211 224 205 197 194 207 253 274 281 290 304 302 302 298 294 290 289 288 285 281 278 275 272 271 266 261 257 251 247 240 232 230 229 228 232 235 231 219 210
172 197 246 277 287 314 168 241 245 249 287 244 244 256 263 261 257 278 295 308 303 300 298 299 298 296 298 296 292 286 280 278 275 272 266 265 264 259 252 245 236 231 229 228 227 233 233 225 212
143 200 90 106 101 273 238 264 276 272 246 241 253 241 248 251 275 295 315 310 303 301 304 306 305 303 303 299 296 288 280 277 271 272 269 268 265 258 253 242 236 233 232 229 226 228 231 225 217
265 137 159 177 277 274 234 261 251 250 223 192 201 213 234 239 285 312 313 304 304 306 310 307 308 307 303 299 294 290 286 284 280 276 271 264 261 258 251 244 238 238 239 235 228 227 226 222 215
157 203 195 303 230 267 300 254 215 235 198 197 236 266 259 256 311 312 308 307 311 311 315 315 316 314 306 303 303 295 288 284 277 273 272 268 263 258 252 248 241 234 235 235 231 228 225 219 213
295 248 192 230 206 245 298 272 189 247 255 266 279 279 272 286 306 314 310 315 319 320 322 323 320 315 309 307 303 296 290 284 278 272 269 264 259 253 249 245 242 233 229 230 230 227 225 219 210